GFSSGP_con_mucape_000.txt.gz
CAPE
0 0 0 0 0 4 24 18 0 0 0 0 0 0 0 0 0 0 54 37 24 2 334 1235 1629 1505 1331 1191 1025 974 947 489 220 106 36 6 0 0 0 0 0 0 0 0 0 0 0 4 11
0 0 0 17 11 32 19 35 0 0 0 0 0 0 0 0 0 0 0 19 0 2 267 969 1895 1715 1592 1530 1517 1483 1260 808 445 404 245 400 200 46 2 25 19 8 5 3 0 0 0 0 1
0 0 0 49 99 35 34 15 1 0 0 0 0 0 0 0 0 0 0 54 0 7 264 679 2078 1894 1872 1737 1747 1720 1650 1253 836 827 589 478 238 214 187 146 125 81 78 51 10 3 3 1 13
0 0 3 24 3 19 10 6 0 0 0 0 0 0 0 0 0 0 129 224 7 78 240 895 2204 2097 2104 1789 1592 1695 1580 1472 959 846 605 380 183 470 553 114 96 76 70 70 82 25 3 23 22
11 6 8 1 0 27 0 0 0 2 0 0 0 0 0 0 0 0 118 311 185 300 480 1651 2456 2400 2424 1938 1497 1814 1974 1567 1097 813 644 271 484 442 173 85 56 38 22 91 132 114 142 235 101
0 0 0 0 0 0 0 0 0 0 0 0 0 0 0 0 0 0 0 8 132 734 1343 1856 2430 2478 2446 2456 1949 1598 1120 744 418 176 136 141 122 103 102 90 78 55 40 110 193 220 366 374 284
1 0 0 0 0 0 0 0 0 0 0 0 0 0 0 0 0 0 0 27 424 704 1071 1568 1930 2188 2148 1625 1577 1287 856 367 15 0 0 0 0 1 4 5 7 34 59 122 360 488 525 566 384
0 0 0 0 0 0 0 0 0 0 0 0 0 0 0 0 0 0 0 0 1 102 320 706 650 599 605 1006 1137 807 300 0 0 0 0 0 0 0 1 6 12 21 18 22 383 490 552 595 578
0 0 0 0 0 0 0 0 0 0 0 0 0 0 0 0 0 0 0 0 0 12 207 207 185 196 259 358 367 353 36 0 2 0 0 5 0 0 0 0 30 94 156 146 201 387 574 363 431
0 0 0 0 0 0 0 0 0 0 0 0 0 0 0 0 0 0 0 0 0 0 0 29 27 38 39 78 105 78 0 0 8 0 0 0 0 0 0 6 22 23 265 279 387 410 471 444 85
0 0 0 0 0 0 0 0 0 0 0 0 0 0 0 0 0 0 0 0 0 0 0 0 0 0 0 0 0 14 0 0 0 0 0 0 0 0 0 0 0 7 73 94 215 291 408 288 169
0 0 0 0 0 0 0 0 0 0 0 0 0 0 0 0 0 0 0 0 0 0 0 0 0 0 0 0 0 0 0 0 0 0 0 0 0 0 0 2 19 37 73 55 215 258 305 304 363
0 0 0 0 0 0 0 0 0 0 0 0 0 0 0 0 0 0 0 0 0 0 0 0 0 0 9 24 10 0 0 0 0 0 0 0 0 2 5 57 69 27 41 37 86 225 274 342 387
0 0 0 0 0 0 0 0 0 0 0 0 0 0 0 0 0 0 0 0 0 0 0 0 0 2 33 12 0 0 0 0 0 0 0 0 0 20 41 11 55 28 0 7 38 196 237 262 250
0 0 0 0 0 0 0 0 0 0 0 0 0 0 0 0 0 0 0 0 0 0 0 0 0 2 11 0 0 0 8 2 0 0 0 0 0 33 35 21 23 13 0 0 9 55 129 153 194
0 0 0 0 0 0 0 0 0 0 0 0 0 0 0 0 0 0 0 0 0 0 0 0 0 0 8 0 2 59 48 24 2 21 2 0 4 20 14 0 14 17 15 0 4 78 149 133 129
0 0 0 0 0 0 0 0 0 0 0 0 0 0 1 0 0 0 0 0 1 0 0 0 0 5 3 26 93 57 45 11 56 92 61 39 16 0 0 16 48 16 25 0 3 79 170 166 190
0 0 0 0 0 0 0 0 0 0 0 0 0 1 0 0 0 0 0 15 4 0 0 0 20 17 65 121 18 36 46 104 218 180 109 35 4 0 0 53 52 19 25 0 0 25 54 97 97
0 0 0 0 0 0 0 0 0 0 1 0 0 0 0 0 0 0 2 11 0 0 4 21 9 50 92 68 58 39 14 28 18 118 80 58 40 11 0 68 48 43 0 1 27 14 10 59 125
0 0 0 0 0 0 0 0 0 1 1 1 0 0 0 0 0 0 0 0 0 0 1 25 31 30 90 0 111 176 38 26 70 81 69 53 53 69 40 78 61 62 0 0 9 55 94 120 176
0 0 0 0 0 0 0 0 0 0 0 0 0 0 0 0 0 4 0 0 0 0 0 52 72 58 15 68 63 32 0 14 35 60 39 22 10 17 60 67 59 66 50 0 28 53 106 211 208
0 0 0 0 0 0 0 0 0 0 0 0 0 0 0 0 1 0 0 0 0 0 0 62 28 45 0 9 11 100 73 59 29 2 5 14 9 24 57 41 47 74 45 29 30 71 95 80 178
0 0 0 0 0 0 0 0 0 0 0 0 0 0 0 0 0 0 0 0 0 0 0 0 52 13 14 17 29 167 22 41 0 0 3 34 50 74 71 41 56 40 101 54 84 64 79 117 72
0 0 0 0 0 0 0 0 0 0 0 0 0 0 0 0 0 0 0 0 0 0 0 31 0 3 78 111 20 26 1 0 0 2 0 11 23 64 54 92 54 56 91 85 48 80 82 39 190
0 0 0 0 0 0 0 0 0 0 0 0 0 0 0 0 0 0 0 0 0 0 0 0 0 8 20 34 4 3 29 0 0 0 0 0 6 39 28 88 107 47 142 109 105 34 66 0 159
0 0 0 0 0 0 0 0 0 0 0 0 0 0 0 0 0 0 0 0 0 0 0 0 1 0 0 1 0 16 7 0 0 0 10 0 0 0 1 60 100 120 144 276 199 173 224 128 151
0 0 0 0 0 0 0 0 0 0 0 0 0 0 0 0 0 0 0 0 0 0 0 0 0 0 0 0 0 37 11 1 3 2 0 0 0 0 0 35 42 190 238 155 261 343 318 326 327
0 0 0 0 0 0 0 0 0 0 0 0 0 0 0 0 0 6 0 0 0 0 0 0 0 0 0 0 0 54 28 51 32 0 9 0 0 0 5 127 202 254 227 200 198 232 378 286 243
0 0 0 0 0 0 0 0 0 0 0 0 0 0 0 0 5 1 0 0 0 0 0 0 0 0 0 0 0 45 92 75 68 3 0 3 0 0 22 64 213 239 205 192 185 186 226 265 401
0 0 0 0 0 0 0 0 0 0 0 0 0 0 0 2 5 0 0 0 0 0 0 0 0 0 0 0 0 6 69 55 25 0 0 0 0 0 9 85 173 213 179 119 188 144 1 121 404

GFSSGP_con_mucape_006.txt.gz
CAPE
0 0 0 0 0 0 0 0 0 0 0 0 0 0 0 0 0 0 1 25 2 0 0 1134 1555 1138 783 814 697 585 347 80 0 0 0 0 0 0 0 0 0 0 0 0 0 0 0 0 0
0 0 0 0 0 0 0 0 0 0 0 0 0 0 0 0 0 0 18 32 0 0 14 872 1669 1450 1194 1090 983 877 740 288 123 16 0 0 0 0 0 0 2 11 18 10 1 0 2 1 0
0 0 0 0 2 0 0 0 0 0 0 0 0 0 0 0 0 0 1 17 2 0 143 608 1807 1690 1457 1356 1215 1076 951 641 314 12 0 8 42 232 326 25 18 29 56 160 59 15 2 4 3
0 0 0 0 0 1 0 27 6 0 0 0 0 0 0 0 0 0 0 56 44 14 209 676 1910 1816 1704 1597 1502 1438 1118 975 703 275 203 336 373 339 245 155 179 131 161 56 20 83 170 50 3
0 0 0 0 0 0 7 13 0 0 0 0 0 0 0 0 0 0 0 82 65 70 238 521 1933 1941 1910 1890 1739 1732 1487 1359 1289 803 499 703 574 409 328 276 214 142 132 71 31 34 331 207 99
0 0 0 0 0 0 0 0 0 0 0 0 0 0 0 0 0 20 29 51 90 97 186 451 1758 2049 1965 2006 1964 1879 1759 1602 1535 1412 1198 836 674 572 456 312 215 174 103 25 19 204 322 476 151
0 0 0 0 0 0 0 0 0 0 0 0 0 0 0 0 0 58 45 25 73 30 166 469 1345 1825 2129 2134 2007 1941 1770 1752 1940 1624 1110 699 505 70 8 1 16 53 61 41 36 53 194 341 90
0 0 0 0 0 0 0 0 0 0 0 0 0 0 0 0 0 72 103 31 47 95 207 540 1349 1631 1624 1765 2242 2128 2080 1785 1337 821 598 0 0 0 0 0 1 9 13 16 20 15 26 174 201
0 0 0 0 0 0 0 0 0 0 0 0 0 0 0 0 0 27 100 62 100 272 369 630 1113 1458 1489 1564 1733 2191 1266 951 759 263 10 113 0 0 0 0 0 0 4 14 19 14 86 121 31
0 0 0 0 0 0 0 0 0 0 0 0 0 1 8 0 0 2 32 59 105 238 424 625 913 1067 1144 1124 1073 1058 645 575 105 8 7 7 0 0 0 0 0 5 25 34 75 142 71 74 6
0 0 0 0 0 0 0 0 0 0 0 0 0 0 7 0 0 0 0 18 34 112 328 571 838 802 830 553 521 667 356 117 12 4 4 0 0 0 0 0 0 0 0 0 3 0 20 48 46
0 0 0 0 0 0 0 0 0 0 0 0 0 2 2 0 0 0 0 0 0 27 211 467 757 569 357 289 233 223 58 13 4 2 0 4 0 0 0 0 0 0 0 0 9 0 15 48 88
0 0 0 0 0 0 0 0 0 0 0 0 0 6 0 0 0 0 0 0 0 1 52 293 404 309 183 98 28 15 43 0 0 0 0 0 0 0 0 0 0 0 6 11 17 20 29 59 101
0 0 0 0 0 0 0 0 0 0 0 0 0 0 0 0 0 0 0 0 0 2 5 5 199 123 87 3 0 0 9 2 0 0 0 0 0 0 0 0 0 0 6 22 6 7 7 40 59
0 0 0 0 0 0 0 0 0 0 0 0 0 0 0 0 0 0 0 3 0 3 5 3 55 19 0 0 0 0 6 10 2 0 0 0 0 0 0 0 2 7 0 11 0 0 0 0 35
0 0 0 0 0 0 0 0 0 0 0 0 0 0 0 0 0 0 0 0 0 0 0 0 0 0 0 0 0 0 5 15 0 0 0 0 5 0 0 0 24 14 0 0 0 0 0 1 6
0 0 0 0 0 0 0 0 0 0 0 0 0 0 0 0 0 0 0 0 0 0 0 0 0 0 0 0 0 4 17 18 0 0 12 12 37 9 15 12 16 1 0 0 0 0 0 3 4
0 0 0 0 0 0 0 0 0 0 0 0 0 0 0 0 0 0 0 0 1 8 2 0 0 0 0 0 1 19 16 10 17 33 34 61 59 49 47 5 0 0 0 0 0 0 0 27 23
0 0 0 0 0 0 0 0 0 0 0 0 0 0 0 0 0 0 0 0 3 9 6 1 0 0 0 0 22 13 38 21 5 0 13 47 49 23 6 0 0 0 18 3 0 0 0 46 73
0 0 0 0 0 0 0 0 0 0 0 0 0 0 0 0 0 0 0 0 6 16 1 0 0 0 0 14 5 25 30 12 0 23 45 45 30 12 34 11 0 29 18 7 0 0 1 28 104
0 0 0 0 0 0 0 0 0 0 0 0 0 0 0 0 0 0 0 4 5 15 0 0 0 0 3 11 2 0 2 0 0 0 8 8 6 9 34 54 11 41 23 0 0 0 0 22 79
0 0 0 0 0 0 2 0 0 0 0 0 0 0 0 0 0 0 0 0 1 0 0 0 0 0 8 2 1 0 14 0 0 0 0 0 0 10 12 36 33 45 14 10 0 0 17 44 89
0 0 0 0 0 0 0 0 0 0 0 0 0 0 0 0 0 0 0 0 0 0 0 0 0 0 0 0 11 31 2 0 0 0 0 0 0 18 11 17 0 0 0 0 0 0 8 69 96
0 0 0 0 0 0 0 0 0 0 0 0 0 0 0 0 0 0 0 0 0 0 0 0 0 1 0 0 10 7 0 0 0 0 0 0 2 53 22 6 14 4 33 5 0 0 1 24 37
0 0 0 0 0 0 0 0 0 0 0 0 0 0 0 0 0 0 0 0 0 0 0 0 0 0 0 0 37 0 0 0 0 0 0 0 1 40 16 11 22 52 52 77 52 27 2 0 12
0 0 0 0 0 0 0 0 0 0 0 0 0 0 0 0 0 0 0 0 0 0 0 0 0 0 0 12 5 0 0 0 0 0 0 0 0 4 17 8 12 53 118 79 74 39 16 8 15
0 0 0 0 0 0 0 0 0 0 0 0 0 0 0 0 0 0 0 0 0 0 0 0 0 0 0 3 0 0 0 1 0 0 0 0 0 0 2 0 33 73 100 105 80 70 61 11 14
0 0 0 0 0 0 0 0 0 0 0 0 0 0 0 0 0 0 0 0 0 0 0 0 0 0 0 0 0 2 0 29 0 0 0 0 0 0 0 0 18 67 96 117 82 149 150 91 91
0 0 0 0 0 0 0 0 0 0 0 0 0 0 0 0 0 0 0 0 0 0 0 0 0 0 0 0 0 4 11 39 0 0 0 0 0 0 0 1 32 52 97 130 119 282 512 517 293
0 0 0 0 0 0 0 0 0 0 0 0 0 0 0 2 0 0 0 0 0 0 0 0 0 0 0 0 0 5 19 31 0 0 0 0 0 0 0 18 73 66 91 96 53 75 202 231 290

GFSSGP_con_mucape_009.txt.gz
CAPE
0 0 0 0 0 0 0 0 0 0 0 0 0 0 0 0 0 0 0 13 13 0 0 861 1475 1138 822 672 489 376 245 107 12 0 0 0 0 0 0 0 0 0 0 0 0 0 0 0 0
0 0 0 0 0 0 0 0 4 0 0 0 0 0 0 0 0 0 42 57 9 0 155 268 1616 1320 1125 955 869 740 544 288 149 32 0 0 0 0 0 0 0 0 0 0 5 12 9 2 1
0 0 0 0 0 8 9 0 0 0 0 0 0 0 0 0 0 0 33 46 0 0 221 596 1738 1524 1373 1236 1146 1080 910 665 404 136 53 37 58 86 117 17 15 1 1 2 53 53 31 21 1
0 0 0 0 0 0 0 0 0 0 0 0 0 0 0 0 0 0 53 17 0 0 278 557 1774 1691 1565 1449 1396 1307 1192 969 737 387 338 290 384 476 542 293 286 164 95 65 113 8 83 202 108
0 0 0 0 0 0 0 2 0 0 0 0 0 0 0 0 0 1 112 65 14 9 277 483 1839 1870 1787 1743 1640 1473 1366 1187 1070 888 551 624 825 605 515 531 307 295 213 181 110 109 287 469 222
0 0 0 0 0 0 0 0 0 0 0 0 0 0 0 0 0 19 126 206 79 110 175 602 1631 2014 1881 1819 1743 1662 1629 1516 1479 1384 1206 1097 1120 757 633 528 465 398 332 255 176 243 318 345 418
0 0 0 0 0 0 0 0 0 0 0 0 0 0 0 0 0 12 97 220 190 222 291 635 1022 1727 1950 1924 1825 1830 1839 1763 1762 1677 1504 1425 906 696 375 70 23 28 88 165 175 101 291 296 130
0 0 0 0 0 0 0 0 0 0 0 0 0 0 0 1 0 50 100 163 137 265 412 595 983 1206 1209 1213 2127 2109 2068 1936 1836 1900 1500 923 449 0 0 0 0 0 1 5 6 35 124 177 277
0 0 0 0 0 0 0 0 0 0 0 0 0 0 0 0 0 46 140 176 170 225 435 573 860 1281 1223 1047 1414 2190 1850 1707 1791 1154 784 370 10 12 0 0 0 0 0 8 11 10 19 32 53
0 0 0 0 0 0 0 0 0 0 0 0 0 0 0 0 0 2 123 159 196 313 369 507 979 1170 1289 1197 1437 1453 1205 891 786 629 311 270 270 127 12 0 0 0 2 15 40 106 51 169 43
0 0 0 0 0 0 0 0 0 0 0 0 0 0 0 0 0 8 35 97 116 282 395 485 910 1255 1331 1256 1416 1386 1027 863 824 482 371 280 140 48 2 2 2 4 0 3 6 10 3 56 160
0 0 0 0 0 0 0 0 0 0 0 0 0 0 0 0 2 6 4 70 121 213 371 629 862 1129 1394 1157 1116 864 739 630 399 330 401 363 274 95 12 2 2 1 1 9 47 42 51 130 187
0 0 0 0 0 0 0 0 0 0 0 0 0 0 0 0 0 0 0 3 84 146 265 620 868 1019 1122 977 716 639 570 352 290 313 245 241 208 184 46 20 26 22 7 75 116 144 109 137 212
0 0 0 0 0 0 0 0 0 0 0 0 0 0 0 0 0 0 0 0 1 28 54 338 680 979 749 608 551 468 460 343 330 241 212 134 79 68 32 36 61 89 109 110 144 111 127 119 174
0 0 0 0 0 0 0 0 0 0 0 0 0 0 0 0 0 0 0 0 5 0 3 140 612 655 544 481 414 267 236 276 280 278 279 122 102 157 195 182 184 308 245 151 186 154 148 155 159
0 0 0 0 0 0 0 0 0 0 0 0 0 0 0 0 0 0 0 0 0 0 0 11 101 323 423 347 221 183 208 255 252 254 243 184 221 337 406 333 209 230 186 195 146 145 127 139 157
0 0 0 0 0 0 0 0 0 0 0 0 0 0 0 0 0 0 0 0 0 0 0 0 69 196 228 229 151 198 271 231 240 276 286 284 263 274 253 292 224 261 133 112 179 168 140 142 174
0 0 0 0 0 0 0 0 0 0 0 0 0 0 0 0 0 0 0 0 0 0 0 47 84 136 176 125 82 117 173 264 284 344 374 355 376 335 291 241 192 211 151 165 184 215 156 183 288
0 0 0 0 0 0 0 0 0 0 0 0 0 0 0 0 0 0 0 0 0 0 0 54 148 145 96 43 72 192 305 343 356 399 433 486 566 428 422 351 171 58 131 273 257 227 182 233 348
0 0 0 0 0 0 0 0 0 0 0 0 0 0 0 0 0 0 0 0 0 0 0 27 106 98 101 112 178 285 411 410 372 411 452 535 536 456 347 131 117 90 241 331 295 272 235 351 494
0 0 0 0 0 0 0 0 0 0 0 0 0 0 0 0 0 0 0 0 0 0 7 14 43 100 120 143 185 263 215 274 371 307 354 302 197 175 296 240 227 372 381 389 337 325 329 530 508
0 0 0 0 0 0 0 0 0 0 0 0 0 0 0 0 0 0 0 0 0 0 0 0 54 116 160 142 267 453 498 529 300 288 212 223 54 173 296 400 336 463 420 409 349 405 472 592 598
0 0 0 0 0 0 0 0 0 0 0 0 0 0 0 0 0 0 0 0 0 0 0 4 84 150 145 186 240 424 677 281 228 169 259 217 247 230 216 385 449 525 433 523 411 400 448 750 645
0 0 0 0 0 0 0 0 0 0 0 0 0 0 0 0 0 0 0 0 0 0 0 2 54 151 139 225 299 649 503 345 171 200 211 171 227 267 388 266 419 519 488 507 360 394 445 575 762
0 0 0 0 0 0 0 0 0 0 0 0 0 0 0 0 0 0 0 0 0 0 0 0 61 62 135 189 290 358 304 178 128 142 146 201 257 222 464 420 424 538 517 450 397 394 417 487 579
0 0 0 0 0 0 0 0 0 0 0 0 0 0 0 0 0 0 0 0 0 0 0 2 66 60 99 209 357 145 190 38 2 34 89 50 210 272 342 316 339 520 464 494 510 486 385 389 644
0 0 0 0 0 0 0 0 0 0 0 0 0 0 0 0 0 0 0 0 0 0 10 33 60 79 168 244 256 160 145 0 49 88 45 15 151 194 227 286 444 546 588 577 641 610 562 412 435
0 0 0 0 0 0 0 0 0 0 0 0 0 0 0 0 0 0 0 0 0 0 7 34 13 58 142 62 232 147 80 2 59 50 36 58 98 133 159 176 307 478 599 632 607 488 439 476 546
0 0 0 0 0 0 0 0 0 0 0 0 0 0 0 0 0 0 0 0 0 0 0 0 0 2 0 8 130 162 82 12 47 31 8 3 37 54 64 100 165 281 559 471 346 212 192 280 431
0 0 0 0 0 0 0 0 0 0 0 0 0 0 0 0 0 0 0 0 0 0 0 0 0 0 0 40 22 150 193 49 49 12 0 1 6 25 47 139 164 213 407 170 264 66 64 156 185

GFSSGP_con_mucape_015.txt.gz
CAPE
0 0 0 0 0 0 0 0 4 0 2 0 0 0 0 0 0 0 0 47 23 43 271 349 1022 931 837 622 476 324 177 48 0 0 0 0 0 0 0 0 0 0 0 0 0 0 0 0 0
0 0 0 0 0 0 3 1 8 21 9 0 0 0 0 1 0 0 29 86 37 61 426 150 1246 1105 1051 826 712 559 386 151 47 0 0 0 0 0 0 0 0 0 0 0 0 3 24 5 0
0 0 0 0 0 0 88 68 59 8 0 0 0 0 0 0 0 0 85 105 64 36 685 268 1372 1217 1227 1094 897 750 675 487 189 14 5 6 7 7 4 0 0 0 37 8 12 10 134 173 41
0 0 0 0 0 6 33 174 75 18 42 0 0 0 0 0 0 0 16 106 84 50 359 1186 1385 1370 1368 1349 1178 1053 903 800 587 254 131 77 86 226 121 36 44 70 164 186 138 97 115 162 34
0 0 0 0 0 0 32 0 115 118 70 24 3 0 0 5 0 0 27 81 104 68 104 1058 1607 1595 1579 1611 1444 1287 1169 1066 972 614 376 285 504 581 372 194 284 449 522 484 309 357 355 174 83
0 0 0 0 0 0 0 0 0 0 21 23 11 4 0 3 0 0 15 74 86 92 89 285 1853 1774 1688 1674 1588 1476 1421 1376 1282 1174 1001 825 898 991 827 736 768 760 672 552 423 408 423 398 123
0 0 0 1 3 0 1 1 0 0 16 17 9 0 1 58 15 4 19 51 79 98 63 139 1720 1753 1806 1801 1690 1656 1646 1623 1591 1478 1348 1332 1178 1350 1038 989 796 605 326 159 140 214 299 353 239
0 0 0 18 9 0 17 2 0 0 7 22 0 0 9 72 14 2 7 29 51 101 98 149 640 1860 1476 996 1904 1855 1824 1774 1694 1643 1570 1622 1197 1357 1094 686 238 47 12 14 0 31 77 164 243
0 0 0 0 2 0 2 16 10 13 1 0 0 3 0 0 7 25 18 14 42 69 140 172 253 979 1346 649 980 1938 1759 1742 1755 1436 1527 1479 564 418 751 614 101 28 9 0 0 0 2 24 50
0 0 0 0 5 16 15 16 21 23 28 0 0 3 10 27 18 39 5 0 23 85 133 208 1044 685 1177 649 836 1533 963 1012 977 774 616 1168 724 531 477 552 121 41 11 0 0 22 34 128 18
0 0 0 29 44 11 47 29 32 36 54 25 0 0 1 10 35 41 2 0 10 19 135 264 1720 2082 1590 1068 697 1600 1284 1151 1154 1039 1194 1209 605 754 740 704 747 514 289 308 140 147 211 84 140
1 0 0 10 28 16 16 13 34 35 42 21 0 0 0 11 23 27 0 6 13 92 76 294 700 2367 2778 1127 637 912 1359 1224 1008 1118 1398 1051 700 948 1021 674 695 763 339 283 87 39 67 168 102
0 0 0 1 4 12 20 1 4 0 4 0 0 0 2 15 3 2 0 0 1 95 102 150 1240 2612 2892 3172 1037 1433 1421 998 1161 779 818 877 768 1210 821 994 536 779 343 569 612 522 390 199 208
0 0 0 0 0 4 23 0 3 2 4 0 0 1 3 7 0 0 0 0 13 116 134 194 1301 2650 2739 2601 3012 2502 2427 1208 884 635 471 790 1031 1045 797 822 626 740 509 363 419 525 761 451 434
1 7 6 2 1 1 14 0 0 0 0 0 0 0 9 0 0 0 0 0 3 112 252 1443 2153 2737 3254 3312 2884 2157 1388 1011 776 633 681 735 1094 1112 1084 983 947 1340 1209 880 655 605 862 277 231
0 20 4 0 0 4 44 0 0 0 4 5 0 2 1 0 0 0 0 16 292 293 881 1212 874 2491 3474 3301 2719 2007 1163 985 499 408 578 1087 1162 1125 1067 1074 1023 1470 1400 1156 1047 733 700 319 213
0 1 0 0 7 26 67 0 1 0 0 1 16 1 0 0 0 23 0 0 295 691 1565 1047 1965 1558 3187 3254 2406 2101 2216 796 411 453 630 764 1009 1006 1247 1013 1176 1201 1365 1360 910 854 620 368 172
0 0 0 0 0 38 51 32 37 0 0 0 1 10 0 0 0 4 5 25 127 386 884 1448 1794 2617 3263 2592 2438 1298 772 659 442 586 650 779 995 866 1232 1035 1204 1116 1167 873 1004 666 587 375 1066
0 0 0 0 1 22 0 27 60 24 6 3 0 0 0 0 0 12 6 57 160 271 719 1182 1597 2925 2695 2053 1462 954 570 687 528 639 739 931 1012 1322 1044 1097 1098 1129 1023 956 1034 644 530 654 724
0 0 0 0 0 47 24 41 35 17 8 0 0 0 0 0 0 0 0 417 292 548 749 842 1310 2277 2443 1750 1472 824 825 449 597 612 827 990 924 968 835 971 1085 996 1142 877 438 667 602 709 602
0 0 0 0 0 15 17 6 0 0 0 0 0 0 0 0 0 0 0 507 414 575 752 877 1187 1936 2018 1727 1235 778 725 649 681 408 702 1086 822 1052 859 919 906 810 1179 928 849 811 614 578 978
0 0 0 0 0 0 3 0 0 0 0 0 0 0 0 0 0 0 2 559 581 646 779 968 1317 1323 994 1522 1279 1837 817 463 327 642 480 777 579 580 574 610 695 791 1271 808 822 835 581 966 781
0 0 0 0 0 0 0 0 0 0 0 0 0 0 0 0 0 0 163 536 568 656 825 1048 1123 905 972 862 1387 676 669 283 424 258 629 899 756 500 528 611 719 786 842 834 813 758 736 1061 1138
0 0 1 12 0 0 0 0 0 0 0 0 0 0 0 0 1 65 510 552 591 605 789 922 853 807 767 551 644 848 624 411 307 531 867 1004 975 865 753 420 548 644 876 786 774 815 845 1046 1222
0 7 2 1 0 0 0 0 0 0 0 0 0 0 0 82 303 446 490 512 529 620 699 742 686 761 587 530 606 629 723 782 803 668 1029 719 591 911 955 468 619 707 819 854 778 855 764 984 1156
0 0 0 0 0 0 0 0 0 0 0 0 0 0 158 361 420 446 455 503 534 584 579 480 601 549 461 500 508 586 708 621 438 734 587 1131 646 826 532 573 661 807 722 887 853 655 742 648 874
0 1 0 1 7 9 9 1 0 0 0 0 0 0 230 491 548 540 539 524 517 482 467 488 504 434 417 385 553 545 709 419 962 708 425 497 598 551 389 452 626 580 583 739 810 946 891 677 790
1 0 0 0 2 8 13 15 0 1 1 0 14 5 131 538 573 559 531 498 464 420 394 490 453 404 290 375 464 577 576 559 555 520 397 743 533 183 387 463 605 615 611 774 883 1129 883 892 1187
0 7 0 0 0 14 26 2 0 1 24 9 11 77 473 615 522 487 443 441 437 390 458 535 368 233 233 414 343 1017 793 524 378 378 213 683 257 474 136 127 452 536 768 689 857 760 634 684 852
0 3 0 1 0 1 40 25 0 0 11 118 188 403 580 508 443 416 419 422 404 452 478 428 213 138 214 260 377 797 495 554 560 394 136 307 467 191 74 120 82 225 533 694 489 331 354 531 531

GFSSGP_con_mucape_021.txt.gz
CAPE
0 0 0 0 0 0 0 0 15 1 3 0 0 0 0 0 0 0 18 148 106 222 443 692 822 612 463 311 200 125 65 46 12 0 0 0 0 0 0 0 0 0 0 0 0 0 0 0 0
0 0 0 0 0 0 0 0 0 15 8 1 0 0 0 5 0 0 178 249 178 153 294 295 884 697 566 431 322 182 121 95 79 8 0 0 0 0 0 0 0 0 0 0 0 0 0 0 0
0 0 0 0 0 1 0 6 39 22 0 1 0 0 0 0 15 5 96 300 185 153 139 186 939 788 664 536 380 295 236 227 174 35 1 0 0 0 0 0 0 0 0 0 1 14 1 2 180
0 0 0 0 0 0 0 0 14 16 0 0 0 0 0 0 0 0 528 363 243 175 40 606 1013 946 805 673 578 494 418 381 335 150 85 39 25 30 24 0 0 0 0 28 110 145 153 117 114
0 0 0 0 0 0 0 1 79 15 21 22 15 0 0 0 22 17 230 497 338 164 0 591 1225 1160 1075 994 869 722 583 552 574 479 254 226 361 367 228 96 73 72 127 245 337 407 440 434 352
0 0 0 0 0 0 0 2 0 61 0 0 0 12 1 0 0 2 0 122 273 175 64 436 1301 1336 1214 1194 1089 905 793 798 768 731 656 647 648 615 437 270 242 352 486 573 498 464 480 550 450
0 0 0 0 0 0 0 0 0 3 0 0 0 1 0 0 0 0 1 7 34 230 170 490 548 1111 1529 1316 1198 1053 953 924 873 837 857 914 931 921 871 887 765 789 861 758 521 394 244 288 451
0 0 0 0 0 0 0 1 0 0 0 0 0 0 0 0 0 1 1 0 0 228 619 508 482 486 666 729 1466 1291 1168 1082 1019 1060 1085 1114 1134 1136 1229 1150 1249 934 733 582 347 140 110 109 259
0 0 0 0 0 0 1 0 0 0 0 0 0 4 0 0 0 0 0 0 0 67 769 636 539 467 493 453 1061 1439 1502 1336 1305 1239 1300 1155 742 680 656 896 1145 1060 871 598 369 238 112 42 92
0 0 0 0 0 0 0 0 0 0 0 0 0 0 1 0 1 0 0 0 0 0 701 858 723 600 574 534 687 911 860 883 1002 906 948 860 615 356 164 658 1539 1257 1307 923 533 293 74 45 1
9 0 0 0 0 0 0 0 1 0 0 0 0 0 0 1 0 0 0 0 0 0 14 909 854 748 682 585 684 902 804 896 1010 838 777 712 473 342 513 420 990 559 759 270 282 144 19 11 0
0 0 0 0 0 0 0 0 0 6 0 0 0 0 0 0 0 0 0 0 0 0 0 719 1083 1081 803 576 552 839 693 721 803 665 587 647 492 588 635 384 417 460 437 219 105 121 132 27 94
0 0 0 0 0 0 0 0 0 0 0 0 0 0 0 0 0 0 0 0 0 0 0 631 1377 1442 1064 650 627 810 726 694 653 668 583 621 777 854 519 240 338 507 346 255 224 211 152 161 168
0 0 0 0 0 0 0 0 0 0 0 0 0 0 0 0 0 0 0 0 0 0 0 212 1007 1428 1196 925 755 834 833 823 748 809 799 878 852 728 458 633 734 590 425 282 196 189 89 47 34
0 0 0 0 0 0 0 0 0 0 0 0 0 0 0 0 0 0 0 0 1 5 0 363 813 1062 1205 1013 820 937 1100 1107 1089 1000 1074 1144 973 751 671 671 657 559 483 389 295 172 142 136 42
0 0 0 0 0 0 0 0 0 0 0 0 0 0 0 0 0 0 0 0 19 0 1 149 1001 1004 1160 1268 1577 1059 1284 1338 1270 979 1152 1133 879 643 676 586 528 534 604 587 571 279 75 129 93
0 0 0 0 0 0 0 0 0 0 0 0 0 0 0 0 0 0 2 6 6 9 13 589 1664 1508 1514 1481 1515 1715 1389 1126 1029 815 791 794 596 735 700 716 688 502 716 661 550 380 259 122 81
0 0 0 0 0 0 0 0 0 0 0 0 0 0 0 0 0 0 0 0 0 0 114 481 1102 1809 1960 2053 1638 1826 1566 1178 945 815 563 547 686 701 691 736 710 641 792 632 439 390 252 154 87
0 0 0 0 0 0 0 0 0 0 0 0 0 0 0 0 0 0 0 10 1 386 738 1054 1665 2241 2204 2137 1959 1727 1570 1357 1163 888 774 648 651 827 865 553 617 764 567 515 455 363 308 167 122
0 0 0 0 0 0 0 0 0 0 0 0 0 0 0 0 0 0 0 0 48 289 974 1582 2316 2315 2286 2015 1906 1610 1511 1308 973 987 517 550 545 534 517 407 471 547 469 481 357 234 166 155 103
0 0 0 0 0 0 0 0 0 0 0 0 0 0 0 0 0 0 0 0 425 636 1304 1881 2661 2329 2265 2078 1862 1671 1464 1169 840 597 531 504 512 628 621 455 403 368 331 334 309 361 309 200 128
0 0 0 0 0 0 0 0 0 0 0 0 0 0 0 0 0 0 0 124 541 860 1140 1345 2487 2236 2170 1919 1647 1427 1191 713 482 624 602 749 536 504 407 462 359 295 341 320 383 257 266 217 180
0 0 0 0 0 0 0 0 0 0 0 0 0 0 0 0 0 0 0 437 847 876 993 1717 2239 2058 1837 1572 1360 983 604 471 328 441 552 571 525 503 343 206 232 312 216 286 236 245 280 269 206
0 0 0 0 0 0 0 0 0 0 0 0 0 0 0 0 0 12 624 733 776 1064 1438 1860 1827 1692 1496 1316 832 517 428 437 418 414 446 414 381 381 361 241 97 91 159 305 357 293 257 246 199
0 0 0 0 0 0 0 0 0 0 0 0 0 0 0 80 360 576 672 742 1001 1236 1494 1533 1437 1311 1191 793 382 662 280 400 403 327 317 314 377 385 365 269 13 81 177 242 340 165 152 210 234
0 0 0 0 0 0 0 0 0 0 0 0 0 0 395 459 518 612 700 855 1043 1289 1245 1083 993 802 804 478 547 430 284 253 303 200 162 309 217 303 72 89 114 354 405 480 467 150 203 232 170
0 0 0 0 0 0 0 0 0 0 0 0 0 2 536 642 669 726 712 884 1087 1067 925 945 700 554 563 265 504 427 419 404 425 278 69 177 193 13 35 71 281 392 324 477 301 181 118 163 187
0 0 0 0 0 0 0 0 0 0 0 0 0 268 529 573 623 566 684 900 909 858 785 802 594 523 465 548 419 317 379 312 237 156 91 162 6 58 64 102 364 466 269 304 173 107 182 260 321
0 0 0 0 0 0 0 0 0 0 4 0 4 415 480 491 512 537 673 765 730 796 746 645 530 489 412 534 279 197 306 157 58 52 40 47 1 40 42 135 319 156 75 167 83 88 108 145 165
0 0 0 0 0 0 0 0 0 57 1 0 40 509 487 488 477 647 671 607 720 586 662 528 406 492 222 531 325 257 198 93 17 6 30 5 0 0 15 17 299 137 264 232 189 137 98 98 30

GFSSGP_con_mucape_024.txt.gz
CAPE
0 0 0 0 0 0 0 0 10 0 0 0 0 0 0 0 0 0 0 3 51 152 465 812 933 713 535 389 212 130 62 25 1 0 0 0 0 0 0 0 0 0 0 0 0 0 0 0 0
0 0 0 0 0 0 0 0 3 4 0 0 0 0 0 0 0 65 83 104 42 227 414 461 1001 782 658 467 293 176 115 49 37 2 0 0 0 0 0 0 0 0 0 0 0 0 0 0 0
0 0 0 0 0 0 0 0 1 12 17 5 0 0 0 0 2 20 61 150 95 188 271 341 1059 882 788 607 387 218 156 149 64 12 6 0 0 0 0 0 0 0 0 0 0 0 0 0 24
0 0 0 0 0 0 0 0 10 29 2 0 0 0 0 0 2 40 204 128 83 145 147 692 1043 903 861 735 519 301 273 290 220 79 50 37 25 44 25 0 0 0 0 27 67 82 83 88 59
0 0 0 0 0 0 0 1 0 11 19 2 0 0 0 0 8 340 245 133 58 31 34 621 1212 1033 965 895 660 435 377 387 394 362 202 99 193 151 73 59 34 19 6 81 163 243 419 429 371
0 0 0 0 0 0 0 0 0 8 35 21 3 0 0 0 136 361 257 137 62 0 0 389 1190 1217 1045 1016 768 617 542 522 580 579 518 498 530 459 263 197 126 124 220 335 445 594 474 447 375
0 0 0 0 0 0 0 0 0 13 0 0 0 15 4 7 37 239 236 153 96 1 0 161 387 879 1393 1229 976 801 683 638 660 692 706 747 767 734 705 627 458 362 516 646 789 582 450 392 363
0 0 0 0 0 0 0 0 0 0 0 0 0 2 1 1 0 2 101 178 159 59 16 164 140 361 590 752 1249 967 820 784 728 840 846 913 932 900 915 829 929 695 916 868 829 576 285 173 158
0 0 0 0 0 0 0 0 0 0 0 0 0 1 1 0 0 0 0 0 191 206 193 244 261 131 378 389 789 1091 1090 1047 870 893 948 875 585 646 566 853 903 1086 1176 1091 788 548 345 214 116
0 0 0 0 0 0 0 0 0 0 0 0 0 3 0 0 0 0 0 0 0 163 382 385 364 215 212 245 333 624 504 539 586 481 515 610 552 404 521 567 1191 1330 1545 1178 957 728 466 224 0
0 0 0 0 0 0 1 0 0 0 0 0 0 0 0 0 0 0 0 0 0 0 331 524 455 361 235 81 232 581 453 494 539 507 471 615 477 385 408 235 495 1106 1411 982 817 559 400 39 0
0 0 0 0 0 0 0 0 0 0 0 0 0 0 0 0 0 0 0 0 0 0 142 620 615 517 384 181 175 418 412 456 575 591 516 510 439 341 199 249 407 821 753 561 246 186 83 44 0
0 0 0 0 0 0 0 0 0 0 0 0 0 0 0 0 1 0 0 0 0 0 0 487 682 632 524 389 372 384 404 430 608 614 475 465 379 267 271 505 467 341 356 382 289 191 125 195 37
0 0 0 0 0 0 0 0 0 0 0 0 0 0 0 0 0 0 0 0 0 0 0 161 680 701 658 491 444 522 472 348 517 555 389 470 420 396 575 772 490 285 431 512 367 243 243 180 138
0 0 0 0 0 0 0 0 0 0 0 0 0 0 0 0 0 0 0 0 0 0 0 33 735 823 808 657 494 575 576 493 454 470 503 488 656 598 743 720 447 591 663 502 396 199 162 146 104
0 0 0 0 0 0 0 0 0 0 0 0 0 0 0 0 0 0 0 0 0 0 0 0 493 1108 1043 922 690 674 753 702 657 649 665 1021 941 773 785 689 657 619 550 507 453 439 331 139 114
0 0 0 0 0 0 0 0 0 0 0 0 0 0 0 0 0 0 0 0 0 0 0 0 407 830 1111 1089 890 837 890 890 856 790 974 1161 1006 935 916 667 603 566 601 542 577 627 460 253 117
0 0 0 0 0 0 0 0 0 0 0 0 0 0 0 0 0 0 0 0 0 0 1 0 421 676 905 1122 1055 992 1040 1117 1121 1191 1331 1146 1186 1069 719 608 608 618 596 655 612 533 383 320 225
0 0 0 0 0 0 0 0 0 0 0 0 0 0 0 0 0 0 0 0 0 0 0 24 798 1071 1092 1093 1493 1308 1346 1390 1398 1343 1010 1143 1088 546 563 525 564 687 660 783 525 392 342 253 200
0 0 0 0 0 0 0 0 0 0 0 0 0 0 0 0 0 0 0 0 0 0 73 102 830 1430 1481 1364 1373 1495 1373 1229 1098 1043 952 850 513 560 566 723 582 547 612 477 319 227 221 169 117
0 0 0 0 0 0 0 0 0 0 0 0 0 0 0 0 0 0 0 0 0 27 452 885 1367 1735 1814 1750 1474 1413 1432 1290 1230 1149 943 549 473 595 595 480 439 391 279 182 105 129 143 108 103
0 0 0 0 0 0 0 0 0 0 0 0 0 0 0 0 0 0 0 0 4 220 966 1790 1813 1993 2003 1952 1789 1561 1482 1351 1293 1200 768 566 530 486 467 402 262 200 62 148 174 150 140 124 60
0 0 0 0 0 0 0 0 0 0 0 0 0 0 0 0 0 0 0 0 121 849 1676 2049 2024 2164 2134 2029 1883 1670 1483 1418 1247 479 380 402 425 482 531 350 125 91 157 51 131 123 136 136 121
0 0 0 0 0 0 0 0 0 0 0 0 0 0 0 0 0 0 14 296 693 1127 2042 2229 2244 2216 2091 1898 1675 1559 1340 790 402 420 493 522 549 439 319 222 94 0 6 41 68 136 140 115 124
0 0 0 0 0 0 0 0 0 0 0 0 0 0 0 0 0 240 459 627 835 1288 1755 2134 2103 1917 1762 1528 1326 980 629 358 379 369 413 353 302 284 326 210 101 0 0 82 102 165 112 116 156
0 0 0 0 0 0 0 0 0 0 0 0 0 0 0 95 270 434 597 780 1099 1521 1773 1890 1747 1573 1423 1174 754 368 298 286 261 261 268 216 259 148 143 123 0 0 55 242 299 218 69 87 160
0 0 0 0 0 0 0 0 0 0 0 0 0 0 113 276 469 587 774 995 1160 1411 1505 1524 1394 1241 1042 426 263 241 211 199 197 118 156 142 86 142 0 23 46 224 325 350 350 208 131 133 92
0 0 0 0 0 0 0 0 0 0 0 0 0 2 297 457 566 731 864 1043 1156 1173 1160 1127 981 781 369 299 294 232 211 236 260 176 19 43 30 0 10 2 167 266 114 181 155 111 123 101 105
0 0 0 0 0 0 0 0 0 0 0 0 0 53 460 588 650 738 889 981 941 845 784 599 402 256 279 202 198 191 116 82 66 0 4 20 0 1 1 4 159 70 19 54 33 49 94 89 56
7 0 0 0 0 0 0 0 0 0 0 0 10 379 565 624 609 753 883 832 669 746 582 353 345 242 291 165 162 213 99 46 6 2 1 0 0 7 2 3 138 46 26 94 75 80 70 21 31

GFSSGP_con_mucape_030.txt.gz
CAPE
0 0 0 0 0 0 0 0 0 0 0 0 0 0 0 0 0 0 0 0 0 11 649 1198 1475 1285 912 721 527 374 200 67 0 0 0 0 0 0 0 0 0 0 0 0 0 0 0 0 0
0 0 0 0 0 0 0 0 0 0 0 0 0 2 0 0 0 0 0 0 0 45 419 734 1521 1299 997 788 565 422 271 122 35 0 0 0 0 0 0 0 0 0 0 0 0 0 0 0 0
0 0 0 0 0 2 6 0 0 0 0 0 0 0 0 0 0 0 0 20 54 154 289 365 1565 1321 1174 912 637 473 303 181 115 40 9 8 11 13 4 0 0 0 0 0 0 0 0 0 0
0 0 0 0 0 2 0 1 10 0 0 0 0 0 0 0 0 0 7 24 43 103 227 344 1557 1338 1240 1094 845 555 426 311 228 150 118 62 32 35 19 0 0 0 0 0 4 0 8 0 0
0 0 0 0 0 0 0 0 0 0 0 0 0 0 0 0 6 35 17 62 39 80 174 286 1579 1356 1346 1290 1017 719 552 422 349 276 146 100 123 87 37 21 23 35 46 54 86 155 179 186 259
0 0 0 0 0 0 0 0 0 0 0 0 0 0 0 1 43 55 52 38 45 63 117 147 1335 1353 1375 1369 1145 794 593 511 446 370 281 214 219 152 98 58 49 61 79 108 172 231 325 682 567
0 0 0 0 0 0 0 0 0 0 0 0 0 0 0 0 1 80 104 54 15 29 64 29 719 1016 1488 1351 1122 842 653 590 500 400 377 341 348 285 222 237 179 137 239 280 364 535 717 748 561
0 0 0 0 0 0 0 0 0 0 0 0 0 0 0 0 1 162 156 101 43 3 0 3 378 689 607 817 1375 1148 854 761 630 586 598 537 508 474 453 420 473 306 416 506 671 786 884 795 524
0 0 0 0 0 0 0 0 0 0 0 0 0 0 0 0 0 0 99 130 116 58 10 1 97 331 408 497 624 1202 914 973 874 797 810 527 308 370 320 471 477 566 665 835 982 1042 1147 712 400
0 0 0 0 0 0 0 0 0 0 0 0 0 0 0 0 0 0 0 21 67 127 130 42 17 104 230 213 270 530 386 367 431 404 412 354 336 320 353 436 538 677 837 1034 1321 1238 1004 676 274
0 0 0 0 0 0 0 0 0 0 0 0 0 0 0 0 0 0 0 0 6 40 105 147 75 54 119 138 108 239 333 294 368 361 345 367 321 357 482 330 488 468 830 821 1228 1228 1008 447 255
0 0 0 0 0 0 0 0 0 0 0 0 0 0 0 0 0 0 0 0 0 0 0 115 156 107 48 75 46 67 250 218 263 298 290 291 251 217 338 186 221 449 529 862 913 930 788 401 196
0 0 0 0 0 0 0 0 0 0 0 0 0 0 0 0 0 0 0 0 0 0 0 0 84 102 102 73 67 70 117 154 158 266 248 199 194 169 155 191 127 101 83 437 803 847 637 297 119
0 0 0 0 0 0 0 0 0 0 0 0 0 0 0 0 0 0 0 0 0 0 0 0 21 82 133 132 135 139 131 142 154 191 220 196 193 213 121 109 96 51 39 345 522 524 378 314 228
0 0 0 0 0 0 0 0 0 0 0 0 0 0 0 0 0 0 0 0 0 0 0 0 0 31 126 165 167 191 211 220 208 183 220 221 186 198 187 166 91 61 55 377 331 306 409 403 317
0 0 0 0 0 0 0 0 0 0 0 0 0 0 0 0 0 0 0 0 0 0 0 0 0 23 91 191 205 249 268 272 281 250 240 251 279 253 243 243 115 64 57 556 248 371 540 430 381
0 0 0 0 0 0 0 0 0 0 0 0 0 0 0 0 0 0 0 0 0 0 0 0 0 0 69 176 255 310 325 328 359 376 361 367 404 364 379 326 117 68 339 607 362 564 506 439 363
0 0 0 0 0 0 0 0 0 0 0 0 0 0 0 0 0 0 0 0 0 0 0 0 0 0 40 190 308 427 460 471 543 587 559 562 545 582 598 483 252 157 687 430 527 511 477 398 414
0 0 0 0 0 0 0 0 0 0 0 0 0 0 0 0 0 0 0 0 0 0 0 0 0 0 127 328 449 542 607 601 669 744 733 713 727 805 755 716 447 499 572 457 447 452 421 399 193
0 0 0 0 0 0 0 0 0 0 0 0 0 0 0 0 0 0 0 0 0 0 0 0 0 0 221 358 448 563 607 678 755 854 909 963 942 872 1024 741 597 756 442 407 391 411 394 139 5
0 0 0 0 0 0 0 0 0 0 0 0 0 0 0 0 0 0 0 0 0 0 0 0 0 0 128 491 589 678 695 726 869 1024 1145 1078 1028 1148 938 689 757 788 422 454 459 378 213 0 0
0 0 0 0 0 0 0 0 0 0 0 0 0 0 0 0 0 0 0 0 0 0 0 0 0 0 125 474 653 719 790 854 961 1122 1212 1196 1400 1061 970 912 651 435 515 278 209 28 0 0 0
0 0 0 0 0 0 0 0 0 0 0 0 0 0 0 0 0 0 0 0 0 0 0 0 35 249 373 577 756 834 927 882 1017 1308 1394 1428 823 893 647 690 450 471 280 138 0 0 0 0 1
0 0 0 0 0 0 0 0 0 0 0 0 0 0 0 0 0 0 0 0 0 1 48 304 534 687 783 906 1011 1022 1112 1180 1289 1301 1191 951 508 576 405 504 503 306 163 7 0 0 0 4 15
0 0 0 0 0 0 0 0 0 0 0 0 0 0 0 0 0 0 0 0 63 238 1023 851 961 1110 1213 1307 1309 1309 1303 1309 1320 1232 1148 1049 241 346 482 415 293 122 11 0 0 0 7 34 43
0 0 0 0 0 0 0 0 0 0 0 0 0 0 0 0 0 0 0 156 346 1630 1470 1282 1347 1491 1593 1599 1565 1519 1476 1408 1324 1241 515 298 351 365 331 204 65 6 0 0 0 11 34 67 61
2 0 0 0 0 0 0 0 0 0 0 0 0 0 0 0 0 0 218 757 1701 1454 1466 1549 1628 1687 1695 1599 1476 1413 1371 1288 812 166 182 231 272 202 93 30 0 0 0 0 4 44 61 53 38
24 0 0 0 0 0 0 0 0 0 0 0 0 0 0 0 0 302 1295 1391 1479 1558 1639 1683 1671 1642 1515 1342 1204 964 554 269 208 223 214 145 91 33 1 0 0 0 24 69 33 77 52 48 58
3 0 0 0 0 0 0 0 0 0 0 0 0 0 0 0 169 896 1180 1097 1336 1618 1668 1513 1398 1231 1118 870 487 353 205 142 131 114 82 58 0 0 0 0 0 13 5 3 4 16 50 56 34
0 0 0 0 0 0 0 0 0 0 0 0 0 8 7 17 809 1160 964 1079 1303 1598 1547 1294 1081 833 506 209 91 73 58 42 46 30 3 0 0 0 0 1 16 14 19 0 12 49 20 8 8

GFSSGP_con_mucape_033.txt.gz
CAPE
0 0 0 0 0 0 0 0 0 0 0 0 0 0 0 0 0 4 0 30 68 102 661 1106 1428 1264 1130 843 631 575 507 436 348 271 179 62 46 6 0 0 0 0 0 0 0 0 0 0 0
0 0 0 0 0 0 0 0 0 0 0 0 0 0 0 1 0 0 5 66 75 380 871 412 1503 1302 1196 942 666 516 342 245 193 127 68 25 41 20 0 0 0 0 0 0 0 0 0 0 0
0 0 0 0 0 0 0 0 0 0 0 0 0 0 0 0 0 2 5 100 81 470 571 692 1649 1439 1285 1039 786 562 361 244 144 100 81 65 41 28 17 0 0 0 0 0 0 0 0 0 9
0 0 0 0 0 0 0 0 0 0 0 0 0 0 0 0 1 5 76 140 180 340 385 674 1657 1504 1373 1107 902 672 420 280 183 140 115 111 79 56 44 28 5 0 0 5 11 21 32 27 35
0 0 0 0 0 0 0 0 0 0 0 0 0 0 0 0 70 210 179 216 243 290 352 374 1708 1527 1477 1340 1103 768 514 341 241 203 186 167 148 149 95 64 2 2 21 30 56 84 102 149 206
0 0 0 0 0 0 0 0 0 0 0 0 0 0 0 0 164 282 232 332 294 373 495 320 1489 1562 1469 1453 1275 934 593 441 369 298 286 263 235 202 160 144 79 54 87 138 200 282 296 341 503
0 0 0 0 0 0 0 0 0 0 0 0 0 0 0 0 76 278 268 284 296 356 416 354 611 1157 1453 1435 1297 1049 754 688 534 409 342 346 360 287 260 253 258 287 366 444 495 455 473 668 705
0 0 0 0 0 0 0 0 0 0 0 0 0 0 0 1 200 297 269 237 180 281 306 225 388 700 510 556 1475 1260 1015 878 685 610 550 470 477 391 351 294 377 436 514 567 721 659 799 915 739
0 0 0 0 0 0 0 0 0 0 0 0 0 0 0 0 159 250 282 320 282 163 239 281 243 683 595 338 587 1355 1156 1024 828 718 686 415 130 155 157 210 497 675 766 863 871 909 1136 1065 708
0 0 0 0 0 0 0 0 0 0 0 0 0 0 0 0 0 0 21 80 248 400 304 156 301 477 683 277 551 784 542 302 483 316 374 291 262 251 160 281 605 861 933 891 991 1164 1156 920 455
0 0 0 0 0 0 0 0 0 0 0 0 0 0 0 0 0 0 0 0 0 17 368 248 238 415 619 541 563 568 859 768 782 487 630 747 457 381 314 280 414 402 761 733 1049 1155 1011 793 611
0 0 0 0 0 0 0 0 0 0 0 0 0 0 0 0 0 0 0 0 0 0 0 204 335 341 714 604 456 402 552 603 488 452 752 847 532 440 466 301 323 524 350 757 1111 1166 1256 1222 830
0 0 0 0 0 0 0 0 0 0 0 0 0 0 0 0 0 0 0 0 0 0 0 0 178 465 573 764 451 515 642 501 417 315 598 799 438 610 490 417 334 423 452 545 1080 1206 1347 1292 1017
0 0 0 0 0 0 0 0 0 0 0 0 0 0 0 0 0 0 0 0 0 0 0 0 5 677 597 655 950 798 686 612 412 386 620 826 589 753 435 489 380 460 346 328 872 1226 1248 1215 841
0 0 0 0 0 0 0 0 0 0 0 0 0 0 0 0 0 0 0 0 0 0 0 27 0 116 896 1120 918 749 425 405 479 357 535 522 726 570 602 403 544 497 500 853 1028 1078 955 917 823
0 0 0 0 0 0 0 0 0 0 0 0 0 0 0 0 0 0 0 0 0 0 0 0 0 17 1129 1207 896 661 590 350 377 398 387 523 665 557 480 390 458 594 653 438 559 857 742 918 946
0 0 0 0 0 0 0 0 0 0 0 0 0 0 0 0 0 0 0 0 0 0 0 0 0 0 576 962 826 866 602 413 438 461 473 570 606 505 540 532 639 553 372 383 765 916 939 1051 1080
0 0 0 0 0 0 0 0 0 0 0 0 0 0 0 0 0 0 0 0 0 0 0 0 0 0 37 349 796 708 622 493 503 561 609 636 626 576 714 574 432 433 413 477 813 1028 929 989 1204
0 0 0 0 0 0 0 0 0 0 0 0 0 0 0 0 0 0 0 0 0 0 0 78 0 0 0 278 488 662 763 818 711 689 773 723 815 804 734 609 731 522 447 876 1054 1132 1120 1053 529
0 0 0 0 0 0 0 0 0 0 0 0 0 0 0 0 0 0 0 0 0 0 0 14 0 0 110 398 682 795 955 739 711 677 963 1017 969 925 812 735 671 872 597 1294 1099 1099 534 423 350
0 0 0 0 0 0 0 0 0 0 0 0 0 0 0 0 0 0 0 0 0 0 0 0 0 0 294 710 858 945 798 387 639 920 910 855 897 988 865 836 751 765 1103 1203 1304 943 512 937 131
0 0 0 0 0 0 0 0 0 0 0 0 0 0 0 0 0 0 0 0 0 0 0 0 0 0 226 918 971 1101 1225 870 918 731 883 1089 1073 996 928 809 848 1135 975 588 839 971 506 635 470
0 0 0 0 0 0 0 0 0 0 0 0 0 0 0 0 0 0 0 0 0 0 0 0 0 171 352 835 1075 1315 1280 1257 1267 1200 1038 1098 1285 1196 909 1002 1223 1178 498 609 1076 794 561 409 338
0 0 0 0 0 0 0 0 0 0 0 0 0 0 0 0 0 0 0 0 0 0 59 214 382 706 696 841 1103 1353 1337 1109 1224 1366 1382 1313 1224 1117 1020 1005 1066 1070 617 809 593 617 609 417 343
1 18 0 0 0 0 0 0 0 0 0 0 0 0 0 0 0 0 0 0 0 145 527 309 798 917 974 1054 1075 1157 1257 1324 1468 1463 1315 1143 928 941 929 998 931 732 709 614 542 571 524 572 415
0 1 0 0 0 0 0 0 0 0 0 0 0 0 0 0 0 0 0 0 219 663 576 716 1181 1072 1020 952 945 1062 1135 1262 1317 1202 1137 851 800 913 914 817 693 554 476 369 469 467 560 546 533
20 0 0 0 0 0 0 0 0 0 0 0 0 0 0 0 0 0 2 430 774 812 1176 1402 1283 1110 1157 1186 1257 1257 1249 1201 1160 988 900 725 804 762 659 609 595 503 417 437 567 514 719 659 130
15 23 0 3 0 0 0 0 0 0 0 0 0 0 0 113 0 49 275 649 1419 1483 1355 1309 1337 1373 1352 1309 1255 1246 1211 1106 698 685 670 723 713 584 602 550 482 350 379 564 865 872 853 735 55
5 6 35 13 0 0 0 0 0 0 0 0 0 0 27 228 68 249 893 1510 1416 1303 1423 1491 1467 1385 1316 1257 1191 1044 601 499 521 582 596 604 565 481 327 216 299 504 702 791 806 802 697 182 75
0 0 23 22 0 0 0 0 0 0 0 0 0 0 0 182 482 972 1250 1342 1378 1357 1533 1482 1360 1195 1036 734 490 475 450 467 520 477 459 381 341 116 152 220 397 507 516 540 487 429 150 37 40

GFSSGP_con_mucape_036.txt.gz
CAPE
0 0 0 0 0 0 0 0 0 0 0 0 0 0 0 20 0 58 60 64 77 118 389 963 1400 1358 1275 1189 919 679 652 698 805 817 678 387 235 60 41 10 0 0 0 0 0 0 0 0 0
0 0 0 0 0 0 0 0 0 0 0 0 0 0 0 25 0 1 2 156 130 330 640 98 1376 1290 1279 1074 985 825 802 600 593 573 500 292 215 114 12 0 0 0 0 0 0 0 0 0 0
0 0 0 0 0 0 0 0 0 0 0 0 0 0 0 48 2 0 59 210 227 742 779 148 1401 1281 1319 1078 911 823 789 661 654 607 424 256 161 74 34 20 3 0 0 0 2 0 0 1 7
0 0 0 0 0 0 0 0 0 0 0 0 0 0 0 0 38 0 206 163 412 884 668 877 1351 1289 1317 1150 977 775 674 552 492 408 270 173 134 97 62 49 31 4 0 0 0 10 27 47 65
0 0 0 0 0 0 0 0 0 0 0 0 0 0 0 0 140 147 199 164 278 640 505 829 1462 1338 1416 1269 1111 865 631 456 340 251 183 167 140 113 85 79 42 29 29 34 37 58 83 99 155
0 0 0 0 0 0 0 0 0 0 0 0 0 2 0 81 248 150 171 178 147 365 476 348 1641 1533 1382 1274 1153 925 695 565 371 277 252 252 196 186 151 138 126 167 196 129 122 195 251 320 370
0 0 0 0 0 0 0 0 0 0 0 0 24 7 11 62 139 202 157 194 296 345 585 436 924 1073 1487 1398 1207 1029 748 586 421 303 292 303 278 254 214 236 245 272 394 520 588 412 397 430 635
0 0 0 0 0 0 0 0 0 0 0 0 0 5 23 87 363 398 249 321 361 499 558 731 810 545 327 387 1504 1319 1086 810 586 504 483 439 487 438 317 297 356 482 570 700 757 520 514 716 827
0 0 0 0 0 0 0 0 0 0 0 0 0 0 0 166 390 321 400 342 344 453 860 765 590 836 448 61 355 1432 1229 1076 929 737 724 419 90 127 84 118 316 621 748 757 612 590 820 964 940
0 0 0 0 0 0 0 0 0 0 0 0 0 0 0 80 170 65 75 127 200 303 571 866 1068 830 848 204 303 799 388 486 239 135 145 157 125 161 63 141 584 797 842 728 746 950 1127 1043 687
0 0 0 0 0 0 0 0 0 0 0 2 0 0 0 0 0 0 0 0 0 1 27 568 1012 1289 1024 798 434 538 764 426 392 251 597 474 183 241 163 151 249 322 677 628 915 1130 1026 888 807
0 0 0 0 0 0 0 0 0 0 0 0 0 0 0 0 0 0 0 0 0 0 0 289 1021 1572 1646 1070 882 780 734 810 616 487 1118 918 654 815 419 184 269 304 291 494 953 1068 1166 1142 1073
0 0 0 0 0 0 0 0 0 0 0 0 0 0 0 0 0 0 0 0 0 0 12 35 86 1374 1684 1980 1325 1612 1215 980 1049 673 784 847 462 1019 409 426 263 430 352 454 895 993 1267 1205 1245
0 0 0 0 0 0 0 0 0 0 0 0 0 0 0 0 0 0 0 0 0 0 14 33 17 307 1433 1647 2022 2149 2170 1584 1275 958 688 1059 738 1118 451 605 373 359 460 395 602 949 1154 1291 1212
0 0 0 0 0 0 0 0 0 0 0 0 0 0 0 0 0 0 0 0 1 1 17 58 144 162 1129 1858 1874 1834 1547 1534 1181 1193 1372 948 1339 1564 1118 443 475 328 574 563 606 1037 1314 1222 1176
0 0 0 0 0 0 0 0 0 0 0 0 0 0 0 0 0 0 0 0 11 37 27 26 27 0 447 1932 1530 1399 1150 1118 1108 1104 1178 1119 1343 1156 1108 555 474 391 602 501 608 920 1046 1046 1201
0 0 0 0 0 0 0 0 0 0 0 0 0 0 0 0 0 0 0 0 0 7 88 85 105 60 575 1139 994 1541 1865 1381 1087 1060 1215 1245 1327 1277 1085 825 474 1183 461 566 472 528 787 1078 1577
0 0 0 0 0 0 0 0 0 0 0 0 0 0 0 0 0 0 0 0 0 1 42 177 448 631 406 373 758 780 1095 1242 1141 1116 1219 1316 1447 1302 1319 984 871 751 515 595 417 668 1057 1265 1307
0 0 0 0 0 0 0 0 0 0 0 0 0 0 0 0 0 0 0 0 0 0 240 582 978 1544 432 96 577 1024 1093 1316 1227 1213 1369 1391 1377 1368 1389 1183 1084 913 644 584 1036 945 1623 1425 1260
0 0 0 0 0 0 0 0 0 0 0 0 0 0 0 0 0 0 0 0 0 0 314 715 1060 964 717 334 1118 1120 1341 1327 1469 1385 1360 1448 1441 1448 1349 1445 1241 1022 530 642 883 1519 1656 1431 1264
0 0 0 0 0 3 0 0 0 0 0 0 0 0 0 0 0 0 0 0 0 0 142 106 451 443 777 883 1291 1680 1756 1602 1581 1308 1328 1360 1454 1852 1223 1244 1273 1110 691 728 2035 1865 1590 1086 1120
0 0 0 0 0 0 0 0 0 0 0 0 0 0 0 0 0 0 0 0 0 0 0 0 77 176 397 1390 2052 2498 1685 1391 1432 1631 1230 1459 1539 1305 1242 1458 1309 1234 859 1896 1432 1379 1422 1437 966
4 14 14 31 0 0 0 0 0 0 0 0 0 0 0 0 0 0 0 0 0 0 0 0 4 32 437 1307 1843 1870 1961 1722 1810 1625 1460 1597 1507 1558 1519 1591 1508 1495 1774 1944 1452 1222 1585 1112 656
42 37 21 64 27 0 0 0 0 0 0 0 0 0 0 0 0 0 0 0 0 0 0 0 172 602 1070 1517 1800 2094 2046 1974 1986 2103 1902 1710 1659 1695 1726 1692 1882 2047 1791 1677 1259 1246 1127 790 530
54 66 0 0 0 0 0 0 0 0 0 0 0 0 0 0 0 0 0 0 0 0 0 421 969 1303 1491 1600 1820 1986 2323 2278 2492 2329 2154 2155 1884 1843 1958 1997 1886 1643 1672 1390 1216 1164 761 694 569
83 71 48 0 0 0 0 0 0 0 0 0 0 0 0 0 0 0 0 0 0 0 375 977 1195 1513 1636 1820 2004 2249 2446 2421 2430 2435 2250 1973 1725 1645 1909 1868 1720 1490 1375 1125 1012 742 612 635 725
149 155 127 92 30 88 2 29 0 0 0 0 0 0 0 0 6 45 9 0 100 839 1367 1744 1733 1786 1929 2132 2241 2404 2450 2519 2338 2168 1915 1549 1644 1667 1656 1609 1416 1258 1074 902 881 535 733 730 890
188 123 93 135 0 0 0 0 0 0 0 0 0 0 0 190 333 240 200 368 1148 1625 2222 2191 2125 2144 2116 2138 2243 2276 2230 2146 2088 1791 1324 1321 1473 1341 1547 1464 1276 1050 733 741 867 668 794 853 833
100 202 196 209 110 11 0 0 2 0 0 0 0 0 0 128 528 724 807 1101 1489 2209 2285 2391 2271 2177 2103 1976 1954 1967 1856 1738 1501 1377 1417 1558 1552 1442 1184 914 615 505 663 902 1002 1059 846 674 526
3 65 17 305 154 27 9 24 19 0 0 0 0 0 0 168 544 698 1356 1827 2100 2144 2127 2147 2106 2017 1904 1838 1800 1632 1337 1241 1332 1379 1389 1332 1158 746 384 280 340 543 625 752 817 685 492 151 41

GFSSGP_con_mucape_042.txt.gz
CAPE
0 0 0 0 0 0 0 0 0 0 0 0 0 0 0 34 6 92 0 14 1066 346 549 1152 1564 1260 1499 2101 2236 2289 2280 2305 2300 2226 2050 1729 1439 1069 781 380 74 6 0 0 0 0 0 0 0
0 0 0 0 0 0 0 0 0 0 0 0 0 0 19 59 33 13 19 67 1323 431 444 538 1679 1327 1319 1793 1993 2056 2085 2174 2221 2095 1786 1516 1292 961 469 80 26 0 0 0 0 0 0 0 0
0 0 0 0 0 0 0 0 0 0 8 0 2 10 42 109 84 22 44 559 1411 719 207 665 1740 1498 1301 1341 1658 1731 1814 1899 2000 1882 1665 1384 1120 777 308 84 46 0 0 0 0 0 0 0 0
0 0 0 0 0 0 0 0 0 17 87 0 4 5 53 147 77 97 42 485 1310 951 238 1504 1699 1622 1502 1258 1206 1348 1526 1639 1642 1538 1365 1183 801 546 253 96 60 25 0 0 0 0 0 0 5
0 0 0 0 0 0 0 0 0 28 32 0 0 0 47 125 182 42 110 315 729 945 454 1286 1605 1646 1660 1536 1197 996 1071 1159 1243 1247 1073 852 624 447 222 102 57 53 49 8 24 62 66 84 98
0 0 0 0 0 0 0 0 0 0 4 4 3 1 23 97 210 81 88 300 388 663 804 1339 1502 1566 1502 1506 1270 1057 981 947 921 916 884 738 606 358 193 127 102 93 112 127 130 130 183 233 259
0 0 0 0 0 0 0 0 0 0 0 0 0 4 83 99 195 67 55 101 224 493 1406 1368 1007 1327 1563 1409 1292 1143 1023 969 900 877 826 674 562 327 208 154 145 141 188 260 272 365 501 544 588
0 0 0 0 0 0 0 0 0 0 0 0 0 23 115 302 243 22 0 9 106 318 1247 1737 1297 728 608 729 1344 1143 1020 931 800 768 701 584 454 389 282 175 186 238 372 506 531 656 802 888 929
0 0 0 0 0 0 0 0 0 0 0 0 0 13 95 161 83 0 0 0 33 90 252 2025 1846 1041 344 247 697 1263 1057 966 806 740 683 424 147 115 58 85 74 370 519 668 741 852 1012 1099 1130
0 0 0 0 0 0 0 0 0 0 0 0 0 43 96 134 12 25 1 24 65 132 128 1057 2160 1087 408 103 395 827 811 712 592 318 284 245 86 15 0 34 131 379 645 772 939 1079 1147 988 579
0 0 0 0 0 0 0 0 0 0 0 0 0 24 70 235 169 193 34 26 119 202 251 612 2177 1864 974 532 854 874 394 381 404 300 170 205 66 27 35 0 26 335 507 378 672 751 756 513 550
0 0 0 0 0 0 0 2 10 0 0 0 0 15 80 112 379 250 143 135 168 210 78 682 2162 2683 2183 1194 1399 1413 1093 729 534 380 187 175 92 38 41 24 70 84 125 154 199 347 494 628 787
0 0 0 0 0 0 0 0 0 0 0 0 0 0 76 131 314 185 100 10 144 243 195 595 2482 3001 3377 3643 2564 1616 1374 1343 909 697 440 189 318 108 84 185 133 98 149 199 193 463 717 887 960
0 0 0 0 0 0 0 0 0 0 0 0 0 0 93 13 13 45 94 168 339 420 377 626 2636 3646 3673 3148 3338 4193 2650 1982 1619 1157 1007 671 501 459 334 215 287 483 219 322 277 501 882 1190 1382
0 0 0 0 0 0 0 0 0 0 0 0 0 0 0 102 25 18 91 324 381 324 378 761 856 3915 3746 3464 3532 2985 2994 2243 2434 1767 2096 1053 951 880 597 568 349 257 586 372 594 554 1054 1402 1658
0 0 0 0 0 0 0 0 0 0 0 0 0 1 11 1 4 16 65 497 805 860 780 1699 198 2878 4073 3765 3297 3161 2348 2462 2341 2050 2408 2185 1414 995 1518 740 764 775 535 976 680 1149 954 1214 1249
0 0 0 0 0 0 0 0 0 0 0 0 0 0 9 34 34 21 52 126 459 609 1016 1311 1315 1171 3587 3899 3113 3231 2919 2965 2231 2494 1982 2789 2016 1572 1328 1457 1233 1161 874 516 883 999 866 1200 1371
0 0 0 0 0 0 0 0 0 0 0 0 0 0 0 34 26 120 317 249 526 1628 2267 2108 2114 2317 3372 2776 2701 1904 1806 1960 2102 1845 2299 3003 2363 2095 1792 1836 1245 1805 924 889 1062 826 1018 1092 1214
0 0 0 0 0 0 0 0 0 0 0 0 0 0 0 0 0 80 58 444 208 1422 2250 2178 2238 2179 2868 2482 1477 1058 1143 1088 1670 1979 2668 3107 2599 2223 2177 1520 2072 1531 1281 971 1329 1411 1394 978 730
0 0 0 0 0 0 0 0 0 0 0 0 0 0 0 0 15 17 115 579 1451 1789 1696 1865 2399 2731 2595 1759 1317 1785 1506 741 1324 2292 2775 3162 2797 2323 2266 1889 1742 1668 1597 1508 1898 1355 793 760 1348
0 0 0 0 0 0 0 0 0 0 0 0 0 0 0 0 0 2 197 552 1244 1109 1475 1739 1844 1839 2129 1394 1495 1963 1672 2875 3326 2752 2813 2915 2667 2504 1970 1840 1702 2003 1503 1304 1657 1214 1011 665 1708
0 0 0 0 0 0 0 0 0 0 0 0 0 0 0 0 0 0 0 114 596 555 810 1825 1695 1490 1643 2298 1820 1748 1406 1446 2278 2945 2624 2630 2485 2290 2052 1876 1858 2356 1360 1714 1229 1179 760 1262 1377
0 1 2 1 0 0 0 0 0 0 0 0 0 0 0 0 0 0 0 0 10 46 59 366 1450 1817 1607 1820 1929 1395 2173 2191 3383 3237 3288 2340 2556 2074 1834 1723 1781 1721 1599 1674 985 1213 1569 1646 1121
13 3 19 17 13 0 0 0 0 0 0 0 0 19 8 0 0 0 0 0 0 0 19 318 617 767 1677 1979 2824 2487 2740 2478 2501 2932 2399 1798 1736 1471 1884 2070 1584 1596 1657 2056 1544 1764 1475 1229 959
118 37 0 0 0 0 0 0 0 0 0 0 0 7 3 8 38 5 0 0 0 0 0 0 678 1106 2062 1741 2593 1943 3059 2628 3993 2526 1885 1642 1341 1327 1879 1860 1840 1719 1862 2149 1801 1404 1254 1244 1201
46 1 37 0 0 0 6 0 0 1 0 0 0 0 27 17 0 2 0 0 0 0 0 112 524 1304 1681 1458 1510 2434 2359 2981 2845 1931 1713 1383 1171 1622 1794 1579 2018 2141 1947 1628 1543 1442 1580 1353 1156
133 68 27 16 117 88 31 0 0 0 0 0 0 3 47 24 0 1 0 0 0 4 401 332 483 765 974 1658 2227 2751 3001 3408 2677 2197 1927 1847 1791 1864 1888 2163 2069 1865 1628 1428 1655 1493 1162 1127 1103
217 93 158 216 118 0 30 12 8 2 34 0 7 37 26 139 30 75 330 542 681 1076 565 705 1043 1863 2512 2449 2849 3044 3443 3612 3007 2885 2547 2340 2418 2103 2315 2007 1967 1589 1403 1423 1348 1105 1118 990 913
207 247 173 125 96 36 75 14 102 197 18 1 5 50 256 67 4 242 1025 946 887 1869 2245 2564 2153 2663 2547 2445 2673 3009 3126 3286 3129 2749 2251 2351 2345 2070 2012 1677 1225 869 1089 1341 1248 988 972 757 683
148 179 179 67 47 102 81 63 169 0 27 0 0 116 67 228 1189 1044 1109 2011 1695 1574 2150 2714 2695 2201 2289 2716 2957 3089 2659 2603 2278 1908 1703 1946 1748 1646 1465 1378 1084 1102 855 960 1010 775 729 682 550

GFSSGP_con_mucape_045.txt.gz
CAPE
0 0 0 0 0 0 0 0 0 0 0 0 0 0 38 84 69 16 6 231 99 325 726 955 1326 1840 2222 2447 2531 2413 2277 2208 2169 2122 1978 1697 1418 862 601 473 153 10 0 0 0 0 0 0 0
0 0 0 0 0 0 0 0 0 0 0 0 3 0 13 76 28 105 419 174 100 270 548 387 1333 1722 2200 2391 2383 2279 2281 2290 2230 2138 1834 1435 1299 912 433 67 26 0 0 0 0 0 0 0 0
0 0 0 0 0 0 0 0 0 0 0 17 0 0 24 105 9 2 502 130 119 232 280 440 1334 1584 2097 2291 2241 2135 2205 2256 2221 2066 1746 1310 1127 945 551 112 54 2 0 0 0 0 0 0 0
0 0 0 0 0 0 0 0 0 0 7 55 6 30 117 111 0 384 763 145 138 119 283 1236 1279 1312 1810 2187 2138 2023 2090 2181 2167 1979 1647 1258 993 921 518 151 91 22 0 0 0 0 0 0 0
0 0 0 0 0 0 0 0 0 0 0 84 15 27 139 83 82 1206 926 356 113 34 462 1043 1368 1241 1324 1795 1908 1912 1921 1911 1982 1954 1653 1350 1102 773 479 225 54 31 18 4 10 91 98 105 134
0 0 0 0 0 0 0 0 0 0 4 8 1 2 66 126 102 624 803 479 197 52 775 880 1585 1387 1107 1186 1390 1494 1568 1599 1620 1622 1501 1280 966 685 453 276 149 125 130 115 154 162 176 259 352
1 0 0 0 0 0 0 0 0 0 0 2 3 0 35 122 43 277 451 598 379 413 634 605 1070 1335 1462 1164 988 965 1070 1112 1156 1126 1065 971 836 644 458 304 197 192 198 225 297 302 394 482 553
0 0 0 0 0 0 0 0 0 0 0 0 0 9 30 165 83 215 323 498 499 1014 772 644 642 960 993 1006 1210 971 864 826 769 848 857 810 807 595 429 239 223 240 308 381 456 474 587 703 766
0 0 0 0 0 0 0 0 0 0 0 0 0 0 144 197 124 80 230 325 590 1153 831 646 487 561 620 737 961 1189 924 974 870 852 892 613 288 236 118 147 153 315 393 530 618 650 732 892 928
0 0 0 0 0 0 0 0 0 0 0 0 0 0 203 201 187 89 23 112 492 1279 1222 725 513 289 199 254 481 721 514 558 495 378 374 281 99 61 61 91 248 302 471 661 746 805 900 847 672
0 0 0 0 0 0 0 0 0 0 0 0 0 0 107 152 148 41 45 21 168 973 1653 1292 714 379 53 95 226 421 347 337 326 226 175 157 18 11 56 1 46 39 225 117 481 614 719 623 598
0 0 0 0 0 0 0 0 0 0 0 0 0 0 0 53 193 190 127 8 56 195 1538 1680 1339 712 373 54 251 316 177 175 179 161 103 77 0 0 0 0 0 0 53 94 145 348 495 533 410
0 0 0 0 0 0 0 0 0 0 0 0 0 0 0 0 40 264 93 51 24 128 718 1251 1296 978 742 493 442 350 252 161 107 148 90 37 7 0 0 0 0 0 42 65 40 126 215 282 317
0 0 0 0 0 0 0 0 0 0 0 0 0 0 0 0 13 242 233 75 10 119 8 13 52 1659 1048 845 851 671 566 449 316 398 466 467 346 150 72 50 12 6 0 31 14 20 167 266 383
0 0 0 0 0 0 0 0 0 0 0 0 0 0 0 0 32 51 147 163 69 12 15 1 749 1718 1904 1611 1693 1865 967 971 882 844 786 695 649 581 448 389 392 184 76 66 125 116 225 349 563
0 0 0 0 0 0 0 0 0 0 0 0 0 0 0 0 24 5 5 34 15 4 0 104 1817 2360 2227 1942 1648 1718 1999 1849 1423 1235 1078 1080 1010 883 827 780 741 589 366 151 234 242 120 257 911
0 0 0 0 0 0 0 0 0 0 0 0 0 0 0 0 0 0 1 0 30 15 21 187 1498 2480 2350 2439 2313 1805 1546 1359 1536 1625 1398 1460 1488 1365 1165 1057 971 888 704 273 218 295 315 386 700
0 0 0 0 0 0 0 0 0 0 0 0 0 0 0 0 0 0 0 0 0 5 2 196 343 2190 2611 2806 2535 2379 2159 2008 1763 1522 1622 1495 1648 1626 1459 1257 1117 1032 926 551 297 372 597 588 695
0 0 0 0 0 0 0 0 0 0 0 0 0 0 0 0 0 0 0 0 20 72 327 278 301 1177 1652 2228 2331 1900 1660 1863 1906 1844 1492 1290 1845 1793 1606 1425 1244 1061 1022 713 565 392 426 502 591
0 0 0 0 0 0 0 0 0 0 0 0 0 0 0 0 0 0 0 0 8 48 586 393 201 298 1557 1565 1276 864 954 957 980 683 1109 1220 1942 1922 1757 1535 1408 1252 1089 921 783 578 484 414 449
0 0 0 0 0 0 0 0 0 0 0 0 0 0 0 0 0 0 0 0 0 103 519 293 169 125 190 516 500 365 261 404 771 980 711 1464 2127 1984 1929 1720 1452 1450 1395 1124 1001 769 551 481 413
0 0 0 0 0 0 0 0 0 0 0 0 0 0 0 0 0 0 0 0 12 533 494 384 311 340 409 342 247 427 237 244 98 597 1352 1903 2174 1885 1853 1675 1473 1388 1465 1312 1163 856 718 542 418
0 0 0 0 0 0 0 0 0 0 0 0 0 0 0 0 0 0 0 0 0 118 266 339 413 203 143 311 248 255 249 482 595 1272 1729 1864 1839 1842 1714 1651 1504 1371 1622 1652 1197 899 647 539 653
5 1 0 1 0 0 0 0 0 0 0 0 0 0 0 0 0 0 0 0 0 0 0 0 253 190 32 59 677 715 790 858 1065 2029 1776 1641 1704 1742 1751 1610 1390 1480 1475 1647 1421 1221 891 755 827
1 5 0 0 0 0 0 0 0 0 0 0 0 0 0 0 0 0 0 0 0 0 0 0 0 23 275 130 677 581 691 719 1215 2156 1828 1666 1635 1624 1652 1178 1568 1307 1287 1539 1093 940 969 995 898
0 27 0 0 0 0 0 0 0 0 0 0 0 0 0 0 0 0 0 0 0 0 0 0 0 0 185 549 1377 1347 1204 2025 1739 2111 1779 1690 1685 1599 1409 1030 1263 1246 1190 1132 1188 970 881 831 647
0 0 36 4 2 0 0 0 0 2 4 0 0 0 0 0 0 0 0 0 0 0 0 0 0 0 795 742 1328 1534 1220 1851 2184 2117 1904 1735 1572 1467 1101 1039 1133 1215 1294 1215 1134 915 797 720 565
35 43 34 31 2 0 0 0 20 20 1 18 10 0 0 0 0 0 0 0 0 0 0 0 9 499 1046 1001 951 1271 1580 2224 2174 2089 1998 1958 1564 1145 1338 1176 1421 1440 1164 980 917 752 540 456 460
5 24 12 3 9 0 0 0 173 3 10 7 10 4 0 29 9 1 21 380 754 223 269 49 385 681 997 1365 1642 1992 2135 2512 2601 2475 2227 1344 1401 1456 1444 1405 1432 1119 918 788 559 351 437 359 282
15 74 15 27 2 0 0 0 44 2 0 0 12 5 0 38 4 0 486 936 1946 1454 1339 986 1491 1667 1768 1989 2115 2303 2404 2627 2503 2023 1934 1760 1796 1749 1520 1217 863 638 531 419 405 395 359 248 85

GFSSGP_con_mucape_048.txt.gz
CAPE
0 0 0 0 0 0 0 0 0 0 0 0 0 0 0 101 71 34 40 22 40 176 544 1374 2081 2541 2577 2451 2334 2129 1972 2011 1998 1918 1567 1327 1135 633 382 455 239 25 0 0 0 0 0 0 0
0 0 0 0 0 0 0 0 0 0 0 0 0 0 43 107 103 100 102 18 64 241 412 634 1937 2329 2560 2445 2318 2116 2084 2083 2056 1957 1648 1295 1097 742 367 63 12 0 0 0 0 0 0 0 0
0 0 0 0 0 0 0 0 0 0 0 0 0 0 39 98 165 131 118 37 83 172 265 250 1819 2097 2440 2447 2260 2118 2105 2139 2130 2053 1795 1471 1225 1070 673 216 32 0 0 0 0 0 0 0 0
0 0 0 0 0 0 0 0 0 0 0 0 0 21 74 83 124 182 81 39 109 148 111 546 1665 1911 2251 2379 2244 2154 2164 2203 2178 2101 1929 1579 1284 1093 745 240 115 27 0 0 0 0 2 9 20
0 0 0 0 0 0 0 0 0 0 0 0 0 16 80 116 347 148 6 23 42 55 46 691 1505 1789 2121 2298 2247 2182 2191 2136 2109 2070 1920 1645 1465 1117 624 269 69 48 11 1 1 65 117 132 95
4 0 0 0 0 0 0 0 0 0 0 2 0 63 44 208 327 63 45 66 60 6 80 477 1362 1712 1874 2071 2080 2055 2042 2013 2006 1952 1898 1741 1471 1115 697 428 247 182 143 114 138 207 211 231 393
0 0 0 0 0 0 0 0 0 0 0 16 0 2 36 462 340 168 24 50 31 5 173 298 595 1220 1753 1827 1832 1871 1818 1798 1823 1769 1721 1696 1421 1071 772 510 387 315 298 286 336 409 343 390 443
0 0 0 0 0 0 0 0 0 0 0 0 0 0 55 87 596 394 94 23 11 224 115 396 568 683 740 1050 1701 1708 1688 1653 1574 1570 1554 1478 1299 1006 741 419 386 365 418 437 489 547 481 558 681
0 0 0 0 0 0 0 0 0 0 0 0 0 0 2 37 368 350 249 175 389 278 167 347 654 703 557 518 826 1274 1426 1478 1367 1339 1342 1005 608 459 245 256 206 384 408 493 584 648 622 735 645
0 0 0 0 0 0 0 0 0 0 0 0 0 0 13 99 259 319 335 274 557 445 379 164 376 460 475 590 555 594 530 559 508 469 535 430 282 175 83 143 279 402 457 520 636 759 805 664 484
0 0 0 0 0 0 0 0 0 0 0 0 0 0 0 135 160 190 258 263 666 617 442 318 125 217 210 235 471 496 351 374 304 236 202 268 105 81 151 60 127 85 246 97 341 495 558 413 426
0 0 0 0 0 0 0 0 0 0 0 0 0 0 0 0 159 110 43 214 472 949 850 487 188 25 32 29 233 286 245 270 222 134 104 99 69 7 11 21 0 35 16 69 55 245 370 461 412
0 0 0 0 0 0 0 0 0 0 0 0 0 0 0 0 3 52 67 100 197 1302 1523 1143 630 291 66 3 49 180 109 131 111 81 39 20 0 0 0 0 0 0 0 3 8 71 137 268 367
0 0 0 0 0 0 0 0 0 0 0 0 0 0 0 0 4 54 30 357 671 1299 1817 1565 1135 802 387 301 186 147 222 74 13 1 8 8 28 32 20 4 0 0 0 0 6 0 14 82 144
0 0 0 0 0 0 0 0 0 0 0 0 0 0 0 0 0 54 59 56 414 784 1321 1172 919 329 275 410 492 287 421 203 175 170 175 205 273 356 367 275 185 150 221 256 182 57 0 46 116
0 0 0 0 0 0 0 0 0 0 0 0 0 0 0 0 0 0 19 98 74 155 301 389 240 138 682 617 490 586 531 385 380 395 456 461 598 676 606 601 523 473 580 620 528 295 77 151 153
0 0 0 0 0 0 0 0 0 0 0 0 0 0 0 0 2 0 20 53 145 104 99 88 60 198 1100 1159 1159 1265 1338 939 883 823 862 916 974 945 979 986 908 829 870 871 783 567 211 240 214
0 0 0 0 0 0 0 0 0 0 0 0 0 0 0 1 3 0 9 8 31 77 63 64 7 22 1259 1485 1476 1448 1660 1875 1548 1374 1441 1379 1286 1235 1186 1215 1258 1257 1157 1057 894 755 365 257 273
0 0 0 0 0 0 0 0 0 0 0 0 0 0 0 0 0 0 0 10 7 18 15 33 0 110 1224 1392 1559 1556 1554 1556 1233 1189 1449 1703 1714 1606 1550 1517 1458 1464 1405 1236 1041 891 531 302 319
0 0 0 0 0 0 0 0 0 0 0 0 0 0 0 0 0 0 0 0 0 58 19 0 21 387 1662 1540 1583 1451 1423 1229 1118 1130 1223 1223 1245 1471 1534 1524 1542 1540 1483 1333 1095 965 619 511 435
0 0 0 0 0 0 0 0 0 0 0 0 0 0 0 0 0 0 0 0 0 0 21 94 24 382 1557 1586 1647 1468 1290 799 772 879 1046 1142 1137 1395 1422 1326 1393 1535 1492 1343 1140 1018 796 651 444
0 0 0 0 0 0 0 0 0 0 0 0 0 0 0 0 0 0 0 0 0 0 0 56 139 111 1060 1277 914 786 458 326 300 291 480 600 1013 1412 1471 1454 1432 1511 1494 1338 1126 1079 932 802 738
0 0 0 0 0 0 0 0 0 0 0 0 0 0 0 0 0 0 0 0 0 0 153 257 269 202 310 594 360 449 278 143 76 74 128 415 1261 1512 1641 1642 1687 1675 1531 1313 1270 1120 1129 1093 900
0 0 0 0 0 0 0 0 0 0 0 0 0 0 0 0 0 0 0 0 0 0 0 296 350 259 156 102 169 90 54 8 13 323 638 982 1380 1655 1795 1776 1716 1511 1409 1378 1378 1297 1350 1117 815
0 0 0 0 0 0 0 0 0 0 0 0 0 0 0 0 0 0 0 0 0 0 0 33 245 131 92 79 50 104 13 0 4 515 975 1293 1617 1756 1702 1633 1535 1462 1275 1291 1331 1346 1305 1076 804
0 0 0 0 0 0 1 0 0 0 0 0 0 0 0 0 0 0 0 0 0 0 0 0 1 48 42 15 0 94 138 68 257 824 1194 1406 1588 1645 1616 1546 1455 1080 1136 1191 1217 947 872 845 601
0 0 0 19 27 0 0 0 0 0 0 0 0 0 0 0 0 0 0 0 0 0 0 0 0 0 0 35 36 87 235 331 728 1129 1468 1560 1557 1619 1519 1544 1355 902 1289 960 855 939 937 775 814
0 0 5 12 0 0 0 0 0 0 0 0 0 0 0 0 0 0 0 0 3 228 3 0 0 0 0 0 134 456 512 1120 1200 1473 1766 1929 1822 1705 1602 1369 942 826 1148 936 961 972 891 847 541
0 0 12 6 10 26 0 0 24 43 0 0 0 0 0 0 0 0 0 0 3 539 331 0 0 0 22 167 416 809 852 1215 1413 1667 1883 1825 1742 1687 1559 816 868 902 1011 1019 995 772 536 592 408
0 10 12 21 78 92 57 0 0 0 0 0 0 0 0 1 0 0 0 0 1 666 597 540 0 92 427 585 829 1396 1487 1370 1364 1536 1753 1820 1845 1484 993 965 988 1126 936 859 588 396 264 265 343